Wind_Speed
23 26 21 17 15 13 12 12 12 13 11 10 10 11 11 11 10 10 10 8 6 5 4 3 4 4 5 6 7 8 8 8 8 7 6 6 6 9 10 12 10 6 6
24 23 22 19 16 14 13 12 14 14 12 11 11 11 12 10 9 9 8 7 5 4 2 1 2 2 3 4 5 6 6 6 6 4 5 5 5 6 9 8 5 8 6
25 23 21 19 17 15 14 14 14 13 13 12 11 11 12 10 9 8 7 6 4 3 2 1 1 1 3 4 4 4 5 4 4 1 4 2 3 7 7 6 9 6 6
20 19 20 19 17 16 14 14 13 15 13 12 13 12 11 9 8 7 7 6 6 4 3 2 1 1 2 2 2 3 4 4 4 4 6 5 6 6 7 6 6 5 6
22 18 19 18 17 15 16 14 14 14 14 13 12 11 10 9 8 7 6 6 4 3 3 2 1 4 4 4 4 4 4 5 6 7 6 6 12 6 3 5 6 7 7
25 17 20 18 18 17 16 15 15 14 14 13 12 11 10 9 8 7 7 6 5 4 3 3 4 6 6 5 6 7 7 7 9 9 12 7 7 4 3 4 7 6 6
21 17 20 19 18 17 16 16 15 14 14 13 11 11 10 9 8 7 6 5 6 6 6 6 6 8 8 7 8 9 10 9 11 13 13 7 6 9 8 7 9 11 10
20 17 18 19 19 18 17 16 15 14 12 11 11 10 10 9 8 7 6 6 7 7 8 9 10 10 11 11 11 11 12 11 12 12 14 15 13 11 11 10 11 12 12
20 18 17 19 19 18 17 15 14 15 14 12 12 10 9 6 5 4 3 5 6 7 8 9 10 11 12 14 15 16 16 15 15 15 13 17 14 12 13 11 13 13 13
23 21 20 18 18 19 18 16 14 12 12 12 11 9 7 5 3 5 3 5 4 2 3 4 5 6 8 10 13 15 16 17 19 20 18 17 16 13 15 16 14 14 14
21 22 18 20 17 15 16 13 12 11 10 11 9 11 8 6 7 1 1 1 0 2 3 4 5 8 10 13 17 10 9 13 15 17 17 19 21 21 19 19 15 15 15
19 19 22 22 20 16 15 15 12 12 11 10 8 8 8 7 8 3 4 4 5 7 7 9 10 10 11 10 12 8 10 12 13 15 17 20 20 22 21 20 17 16 15
25 20 22 22 20 18 17 16 13 12 11 10 10 7 6 4 3 3 3 6 6 7 7 7 8 9 10 11 13 13 14 14 13 15 15 13 13 11 13 14 16 15 14
24 26 22 23 19 16 16 15 14 13 12 9 10 9 6 6 5 5 3 6 7 8 10 9 10 11 10 10 11 10 9 10 13 18 16 17 15 13 14 12 11 14 14
21 24 21 20 18 17 15 16 15 15 12 10 7 11 8 8 8 7 8 7 8 8 7 9 11 11 12 12 11 12 12 13 12 11 12 16 20 19 13 11 7 8 12
21 17 19 18 16 16 17 17 16 15 15 12 11 12 12 9 12 7 7 6 5 7 10 11 12 13 13 14 13 13 13 12 12 11 12 13 14 15 13 10 9 9 8
23 18 17 17 17 18 19 18 16 16 14 11 12 12 12 9 11 8 8 6 8 9 9 11 12 12 14 15 15 16 14 13 11 11 12 12 5 1 2 4 5 5 7
24 23 19 18 18 19 19 18 17 16 15 13 10 11 11 12 11 10 7 8 12 9 10 11 11 13 14 16 16 17 19 16 12 10 10 7 13 11 8 8 7 6 4
25 25 20 20 19 18 18 17 17 16 14 13 11 10 10 11 12 8 8 10 9 8 8 10 11 12 13 15 19 19 17 13 11 8 8 12 11 10 10 12 12 8 9
27 27 24 21 21 20 19 18 17 15 14 13 12 12 9 10 12 8 9 11 8 8 10 13 12 12 11 16 17 16 16 8 7 8 8 10 11 9 11 10 10 12 11
28 27 25 23 21 21 20 20 19 18 16 13 12 11 10 10 10 9 8 9 10 10 11 12 14 14 14 21 14 18 14 7 7 7 12 8 9 9 10 9 9 10 9
25 24 24 23 22 20 19 18 19 19 16 15 13 12 11 11 9 9 10 10 12 9 10 13 15 14 11 18 13 10 4 4 12 8 6 10 13 10 12 11 12 13 14
22 22 22 22 21 20 19 20 23 21 19 16 13 12 10 10 10 11 10 10 9 8 10 10 11 13 12 13 15 8 4 3 11 11 15 16 18 13 14 12 12 14 17
18 20 21 22 20 19 19 18 20 18 18 18 17 13 11 10 10 10 10 9 10 6 8 9 10 11 9 11 8 11 7 6 3 4 15 18 18 13 9 8 14 16 18
21 19 19 21 22 17 17 17 19 18 18 21 19 15 12 11 10 9 8 8 8 8 9 10 9 10 9 8 10 9 9 9 10 3 4 13 19 14 8 10 11 14 14
23 22 18 17 20 18 16 16 18 18 21 21 19 15 13 11 9 9 8 8 8 7 8 8 7 8 9 8 8 8 8 5 8 6 3 10 12 13 16 11 8 12 14
Wind_Direction
128 144 146 140 133 126 118 114 119 134 145 148 148 139 135 128 123 117 114 116 117 119 116 92 66 57 40 39 34 31 34 36 39 43 58 76 93 105 106 114 100 92 109
132 147 149 147 142 135 126 116 116 126 139 148 151 148 141 137 132 126 123 125 121 120 116 96 67 44 39 34 27 24 28 33 35 36 78 80 100 108 126 133 133 150 124
127 147 150 152 147 138 131 127 127 130 137 147 153 150 146 145 143 140 140 144 129 130 171 148 104 16 8 7 11 9 8 13 21 22 137 167 141 139 140 128 124 128 127
130 136 152 153 148 144 135 132 131 136 135 144 148 149 148 151 153 153 156 161 170 178 176 181 183 272 301 319 323 333 333 340 348 308 262 242 200 168 146 159 163 171 167
137 138 150 152 150 146 147 144 142 140 141 145 148 151 153 158 162 162 167 175 182 187 183 203 289 290 293 296 292 295 301 309 309 302 332 273 161 171 172 180 199 200 191
129 139 146 146 149 155 152 152 148 148 147 151 157 159 165 167 171 172 180 187 193 206 221 227 241 273 283 284 287 291 291 294 296 300 302 282 226 219 241 219 207 218 218
119 141 146 150 155 156 158 158 156 154 153 156 163 166 170 172 178 184 196 207 215 226 239 249 252 260 276 281 285 287 288 288 291 297 292 224 223 241 254 262 222 216 224
123 138 141 148 152 155 156 157 157 155 156 160 166 171 176 180 189 195 209 226 240 247 254 261 265 270 273 274 274 273 277 281 282 284 294 300 241 238 242 263 248 231 232
140 142 143 145 151 153 156 159 162 162 161 161 166 168 169 161 171 174 203 239 251 260 268 273 277 279 280 280 280 277 272 271 273 274 272 284 276 252 254 264 256 244 241
146 149 151 148 148 151 154 157 157 156 155 153 158 158 154 164 157 144 110 226 236 266 288 294 292 294 299 300 296 284 279 273 267 269 271 269 284 272 265 272 261 252 249
147 151 153 148 154 150 146 146 141 136 128 124 122 122 128 126 117 26 243 134 189 329 331 330 321 319 314 311 318 291 288 284 270 269 271 269 269 274 276 272 260 252 253
160 165 162 162 156 139 139 128 126 119 118 121 126 131 133 142 135 142 32 24 10 359 352 352 348 339 349 342 349 340 314 313 283 278 270 271 275 261 263 258 262 258 253
160 164 171 166 153 150 147 144 144 140 137 130 140 139 134 137 111 56 23 38 23 6 355 353 347 343 327 340 323 328 313 318 318 330 335 308 313 290 276 271 265 264 256
162 156 167 165 156 159 153 153 147 144 136 135 140 121 130 129 88 51 57 33 34 17 2 5 357 338 335 333 327 314 308 313 312 312 316 322 323 315 296 290 280 269 263
163 153 163 166 165 156 153 140 142 130 129 114 109 119 113 99 83 78 68 53 37 22 9 6 350 348 347 335 330 328 323 312 308 306 302 298 302 315 321 305 306 287 276
154 158 153 156 152 149 142 138 137 140 128 128 128 122 115 143 108 108 95 66 59 22 25 9 354 352 343 342 330 326 319 314 313 309 309 312 301 294 301 304 283 267 266
150 160 159 156 155 150 142 139 136 134 135 131 119 119 119 102 111 100 92 72 60 36 20 13 5 355 348 343 339 326 322 318 310 309 310 301 317 305 4 7 331 300 295
157 160 167 162 156 150 148 142 137 132 126 120 115 112 110 114 106 104 89 66 56 34 13 21 6 0 351 346 334 327 316 314 309 300 300 110 62 30 8 4 354 340 305
161 157 164 161 158 148 142 135 132 131 127 123 114 108 105 105 103 103 92 79 70 59 32 24 13 3 352 351 333 317 317 315 314 320 87 60 47 45 35 8 17 36 38
158 161 165 161 158 150 144 138 133 132 124 125 124 116 102 97 103 86 71 82 66 57 32 27 25 16 10 353 337 316 302 292 316 45 85 54 41 34 9 20 15 9 26
154 156 158 162 159 155 152 148 144 140 136 128 125 116 112 100 102 102 85 82 76 58 47 33 26 13 19 0 2 347 347 98 67 41 70 73 56 21 24 26 9 3 12
149 156 162 162 167 169 166 161 157 147 146 138 131 118 109 104 99 101 96 75 84 61 47 39 40 25 27 24 2 327 3 74 11 78 36 62 56 19 1 10 15 1 358
155 166 167 167 176 184 177 159 139 143 136 134 133 118 111 109 102 92 88 93 79 85 63 50 49 36 12 29 37 32 357 6 332 26 40 37 22 36 12 2 12 29 46
164 172 177 175 183 199 164 149 151 152 160 162 145 135 122 110 97 86 87 82 89 84 84 66 53 47 40 29 36 28 25 324 9 332 337 16 18 34 38 36 27 23 16
170 177 187 182 186 184 166 169 168 179 150 138 132 131 123 110 99 97 99 101 97 87 67 65 62 68 53 44 36 18 10 8 47 329 312 350 348 352 19 68 50 29 17
166 170 185 191 189 174 180 184 184 154 142 137 141 148 141 126 117 108 102 107 112 95 89 81 77 68 67 58 50 48 43 26 10 354 334 331 345 322 318 80 68 42 16
Height
767 770 775 780 783 785 787 788 789 791 795 799 801 803 804 806 807 808 810 812 814 815 816 817 818 819 820 820 820 820 820 820 819 819 819 820 820 821 821 823 824 826 826
763 771 776 779 783 786 788 790 791 793 797 800 802 804 805 807 809 810 812 813 815 816 817 818 820 820 820 821 821 821 821 821 821 820 822 822 822 824 823 823 824 825 826
765 771 777 780 782 786 789 792 793 795 797 801 804 805 806 809 810 811 812 814 816 817 818 819 820 821 821 822 822 822 822 822 822 821 823 824 822 823 824 824 825 826 827
767 772 776 780 782 786 790 793 794 795 798 802 804 806 808 810 811 812 813 814 816 817 819 819 820 821 821 821 821 822 822 822 821 821 822 823 824 823 823 824 826 827 828
770 774 775 780 783 787 789 793 795 796 798 801 804 806 808 810 812 813 815 816 817 818 819 820 821 821 822 821 821 821 821 821 821 820 821 823 821 824 824 823 826 827 828
770 773 777 781 784 787 790 793 795 798 799 802 804 806 808 810 812 813 815 816 817 818 819 820 821 821 821 821 821 821 821 821 820 820 821 822 820 822 824 823 825 827 829
770 774 777 780 784 787 791 793 796 798 799 802 805 807 809 810 812 813 815 816 816 817 818 819 820 821 821 821 821 821 820 821 820 819 819 821 818 820 821 823 824 826 828
772 777 779 782 784 787 790 793 795 798 800 803 805 807 809 810 811 812 814 815 816 816 817 818 819 820 820 819 820 820 819 820 820 819 818 818 817 818 819 821 823 825 826
776 779 782 783 785 788 790 792 795 796 799 802 804 806 808 810 811 812 813 814 815 816 816 817 817 818 818 818 818 818 818 818 818 818 817 817 816 817 819 819 821 822 824
777 780 782 784 786 788 789 791 795 798 799 801 804 806 808 809 811 812 812 813 814 815 815 816 816 816 816 817 816 815 815 815 815 815 816 816 816 815 815 817 818 820 822
778 781 783 785 788 789 791 793 797 798 801 803 805 806 808 810 811 811 812 813 813 813 814 815 816 816 815 815 814 813 814 812 812 813 813 813 814 814 814 813 815 816 818
779 781 783 785 787 791 794 795 799 801 803 804 806 807 808 810 811 812 812 813 814 814 815 815 815 815 814 813 813 813 813 813 812 812 811 811 809 810 811 811 811 813 815
774 779 782 784 788 790 794 796 800 801 803 805 806 808 809 810 812 813 813 814 815 815 814 814 815 814 813 813 812 811 810 810 810 810 808 807 806 808 809 811 810 811 813
772 776 781 784 787 790 793 796 799 800 802 804 805 808 810 811 812 814 814 815 814 814 815 815 814 814 814 814 813 811 809 809 809 808 807 805 806 807 807 808 807 809 811
769 775 780 784 787 790 792 795 798 800 803 805 805 807 809 809 812 813 814 815 815 815 814 814 814 813 814 813 813 811 810 809 808 807 806 805 804 805 804 805 805 806 808
768 775 780 783 785 789 789 794 797 799 802 803 804 805 808 809 810 812 813 813 814 814 815 814 813 813 812 812 811 811 809 807 807 807 806 805 803 803 803 803 803 802 802
765 776 780 784 787 788 791 795 796 800 801 803 804 806 808 811 812 814 815 815 814 815 814 814 814 814 813 810 810 809 809 806 805 805 805 804 800 801 802 803 802 802 802
762 772 780 783 786 788 791 794 796 800 802 804 805 806 808 810 812 813 814 814 815 816 815 814 813 813 811 811 807 805 805 805 804 804 802 802 802 802 803 803 803 801 801
760 769 778 781 786 788 792 794 797 800 803 805 807 807 810 811 813 812 812 812 814 814 814 814 814 813 811 809 809 805 803 801 802 804 800 801 802 804 804 803 803 803 802
756 764 773 780 783 786 788 792 796 800 802 805 807 809 810 811 813 814 814 815 816 815 815 813 812 811 811 809 805 803 801 800 802 801 801 801 804 805 805 806 806 804 804
753 762 770 776 782 785 788 790 793 797 801 805 807 809 810 811 812 815 816 815 816 814 815 814 814 813 813 809 805 798 796 800 803 803 802 803 805 805 806 806 805 806 805
753 762 770 776 780 784 786 788 792 796 800 804 807 808 810 812 814 815 816 815 815 816 814 815 815 814 814 813 813 807 804 803 803 805 805 805 807 807 807 807 806 805 805
754 762 770 776 780 782 783 785 788 793 798 804 807 809 811 812 812 812 814 814 815 816 816 816 817 816 816 816 816 815 813 815 812 807 808 806 805 806 808 808 808 807 807
754 762 768 774 779 782 782 784 787 791 795 799 802 807 809 811 814 815 816 816 817 818 818 817 816 817 818 817 817 818 817 818 819 817 808 809 808 807 808 808 808 807 807
751 762 769 772 776 779 782 786 788 790 792 796 800 806 810 811 813 816 816 817 818 819 820 820 818 817 819 820 819 820 818 815 819 819 815 812 810 809 809 807 809 812 811
746 757 766 771 774 776 782 785 787 787 790 794 799 805 808 810 813 815 816 816 817 819 819 818 821 819 819 819 819 819 820 821 822 821 820 817 816 810 811 807 809 811 814